This is the latest recevied weather packets stored in our database for station/object KC5DAQ-27. If no packets are shown the sender has not sent any weather packets the latest 1 day(s).
| Time | Temp. | Humidity | Pressure | Rain* | Wind** | Luminosity | Snow |
|---|---|---|---|---|---|---|---|
| 1778088547 | 27.78° C | 85% | 1002 hPa | 0 mm | - | 237 W/m² | - |
| 1778088246 | 27.22° C | 85% | 1002.1 hPa | 0 mm | - | 253 W/m² | - |
| 1778088067 | 27.22° C | 85% | 1002.1 hPa | 0 mm | - | 262 W/m² | - |
| 1778088007 | 27.22° C | 86% | 1002.1 hPa | 0 mm | - | 264 W/m² | - |
| 1778087886 | 27.22° C | 85% | 1002.1 hPa | 0 mm | - | 258 W/m² | - |
| 1778087587 | 27.22° C | 86% | 1002.2 hPa | 0 mm | - | 190 W/m² | - |
| 1778087408 | 27.22° C | 85% | 1002.2 hPa | 0 mm | - | 176 W/m² | - |
| 1778087346 | 27.22° C | 86% | 1002.3 hPa | 0 mm | - | 181 W/m² | - |
| 1778087167 | 27.22° C | 86% | 1002.2 hPa | 0 mm | - | 204 W/m² | - |
| 1778087106 | 27.22° C | 86% | 1002.2 hPa | 0 mm | - | 204 W/m² | - |
| 1778086927 | 27.22° C | 87% | 1002.2 hPa | 0 mm | - | 193 W/m² | - |
| 1778086626 | 27.22° C | 86% | 1002.3 hPa | 0 mm | - | 202 W/m² | - |
| 1778086386 | 27.22° C | 87% | 1002.3 hPa | 0 mm | - | 157 W/m² | - |
| 1778085966 | 26.67° C | 87% | 1002.3 hPa | 0 mm | - | 200 W/m² | - |
| 1778085846 | 27.22° C | 87% | 1002.4 hPa | 0 mm | - | 246 W/m² | - |
| 1778085606 | 26.67° C | 88% | 1002.3 hPa | 0 mm | - | 338 W/m² | - |
| 1778085307 | 26.67° C | 88% | 1002.3 hPa | 0 mm | - | 399 W/m² | - |
| 1778084826 | 26.67° C | 89% | 1002 hPa | 0 mm | - | 304 W/m² | - |
| 1778084706 | 26.67° C | 89% | 1002 hPa | 0 mm | - | 280 W/m² | - |
| 1778084525 | 26.67° C | 89% | 1002 hPa | 0 mm | - | 243 W/m² | - |
| 1778084345 | 26.67° C | 89% | 1002 hPa | 0 mm | - | 251 W/m² | - |
| 1778084286 | 26.67° C | 89% | 1002 hPa | 0 mm | - | 262 W/m² | - |
| 1778084046 | 26.67° C | 89% | 1001.9 hPa | 0 mm | - | 246 W/m² | - |
| 1778083626 | 26.11° C | 89% | 1001.9 hPa | 0 mm | - | 236 W/m² | - |
| 1778083084 | 26.11° C | 89% | 1001.7 hPa | 0 mm | - | 222 W/m² | - |
* Rain latest hour (hover to see other rain measurements)
** Current wind speed in m/s (hover to see current wind gust speed)